QPF
0.00 0.00 0.00 0.00 0.00 0.00 0.00 0.00 0.00 0.00 0.00 0.00 0.00 0.00 0.00 0.00 0.00 0.00 0.00 0.00 0.00 0.00 0.00 0.00 0.00 0.00 0.00 0.00 0.00 0.00 0.06 0.07 0.02 0.00 0.00 0.00 0.00 0.00 0.00 0.00 0.00 0.00 0.00 0.00
0.00 0.00 0.00 0.00 0.00 0.00 0.00 0.00 0.00 0.00 0.00 0.00 0.00 0.00 0.00 0.00 0.00 0.00 0.00 0.00 0.00 0.00 0.00 0.00 0.00 0.00 0.00 0.00 0.00 0.01 0.01 0.01 0.00 0.00 0.00 0.00 0.00 0.00 0.00 0.00 0.00 0.00 0.00 0.00
0.00 0.00 0.00 0.00 0.00 0.00 0.00 0.00 0.00 0.00 0.00 0.00 0.00 0.00 0.00 0.00 0.00 0.00 0.00 0.00 0.00 0.00 0.00 0.00 0.00 0.00 0.00 0.00 0.00 0.00 0.00 0.00 0.00 0.00 0.00 0.00 0.00 0.00 0.00 0.00 0.00 0.00 0.00 0.00
0.00 0.00 0.00 0.00 0.00 0.00 0.00 0.00 0.00 0.00 0.00 0.00 0.00 0.00 0.00 0.00 0.00 0.00 0.00 0.00 0.00 0.00 0.00 0.00 0.00 0.00 0.00 0.00 0.00 0.00 0.00 0.00 0.00 0.00 0.00 0.00 0.00 0.00 0.00 0.00 0.00 0.00 0.00 0.00
0.00 0.00 0.00 0.00 0.00 0.00 0.00 0.00 0.00 0.00 0.00 0.00 0.00 0.00 0.00 0.00 0.00 0.00 0.00 0.00 0.00 0.00 0.00 0.00 0.00 0.00 0.00 0.00 0.00 0.00 0.00 0.00 0.00 0.00 0.00 0.00 0.00 0.00 0.00 0.00 0.00 0.00 0.00 0.00
0.00 0.00 0.00 0.00 0.00 0.00 0.00 0.00 0.00 0.00 0.00 0.00 0.00 0.00 0.00 0.00 0.00 0.00 0.00 0.00 0.00 0.00 0.00 0.00 0.00 0.00 0.00 0.00 0.00 0.00 0.00 0.00 0.00 0.00 0.00 0.00 0.00 0.00 0.00 0.00 0.00 0.00 0.00 0.00
0.00 0.00 0.00 0.00 0.00 0.00 0.00 0.00 0.00 0.00 0.00 0.00 0.00 0.00 0.00 0.00 0.00 0.00 0.00 0.00 0.00 0.00 0.00 0.00 0.00 0.00 0.00 0.00 0.00 0.00 0.00 0.00 0.00 0.00 0.00 0.00 0.00 0.00 0.00 0.00 0.00 0.00 0.00 0.00
0.00 0.00 0.00 0.00 0.00 0.00 0.00 0.00 0.00 0.00 0.00 0.00 0.00 0.00 0.00 0.00 0.00 0.00 0.00 0.00 0.00 0.00 0.00 0.00 0.00 0.00 0.00 0.00 0.00 0.00 0.00 0.00 0.00 0.00 0.00 0.00 0.00 0.00 0.00 0.00 0.00 0.00 0.00 0.00
0.00 0.00 0.00 0.00 0.00 0.00 0.00 0.00 0.00 0.00 0.00 0.00 0.00 0.00 0.00 0.00 0.00 0.00 0.00 0.00 0.00 0.00 0.00 0.00 0.00 0.00 0.00 0.00 0.00 0.00 0.00 0.00 0.00 0.00 0.00 0.00 0.00 0.00 0.00 0.00 0.00 0.00 0.00 0.00
0.00 0.00 0.00 0.00 0.00 0.00 0.00 0.00 0.00 0.00 0.00 0.00 0.00 0.00 0.00 0.00 0.00 0.00 0.00 0.00 0.00 0.00 0.00 0.00 0.00 0.00 0.00 0.00 0.00 0.00 0.00 0.00 0.00 0.00 0.00 0.00 0.00 0.00 0.00 0.00 0.00 0.00 0.00 0.00
0.00 0.00 0.00 0.00 0.00 0.00 0.00 0.00 0.00 0.00 0.00 0.00 0.00 0.00 0.00 0.00 0.00 0.00 0.00 0.00 0.00 0.00 0.00 0.00 0.00 0.00 0.00 0.00 0.00 0.00 0.00 0.00 0.00 0.00 0.00 0.00 0.00 0.00 0.00 0.00 0.00 0.00 0.00 0.00
0.00 0.00 0.00 0.00 0.00 0.00 0.00 0.00 0.00 0.00 0.00 0.00 0.00 0.00 0.00 0.00 0.00 0.00 0.00 0.00 0.00 0.00 0.00 0.00 0.00 0.00 0.00 0.00 0.00 0.00 0.00 0.00 0.00 0.00 0.00 0.00 0.00 0.00 0.00 0.00 0.00 0.00 0.00 0.00
0.00 0.00 0.00 0.00 0.00 0.00 0.00 0.00 0.00 0.00 0.00 0.00 0.00 0.00 0.00 0.00 0.00 0.00 0.00 0.00 0.00 0.00 0.00 0.00 0.00 0.00 0.00 0.00 0.00 0.00 0.00 0.00 0.00 0.00 0.00 0.00 0.00 0.00 0.00 0.00 0.00 0.00 0.00 0.00
0.00 0.00 0.00 0.00 0.00 0.00 0.00 0.00 0.00 0.00 0.00 0.00 0.00 0.00 0.00 0.00 0.00 0.00 0.00 0.00 0.00 0.00 0.00 0.00 0.00 0.00 0.00 0.00 0.00 0.00 0.00 0.00 0.00 0.00 0.00 0.00 0.00 0.00 0.00 0.00 0.00 0.00 0.00 0.00
0.00 0.00 0.00 0.00 0.00 0.00 0.00 0.00 0.00 0.00 0.00 0.00 0.00 0.00 0.00 0.00 0.00 0.00 0.00 0.00 0.00 0.00 0.00 0.00 0.00 0.00 0.00 0.00 0.00 0.00 0.00 0.00 0.00 0.00 0.00 0.00 0.00 0.00 0.00 0.00 0.00 0.00 0.00 0.00
0.00 0.00 0.00 0.00 0.00 0.00 0.00 0.00 0.00 0.00 0.00 0.00 0.00 0.00 0.00 0.00 0.00 0.00 0.00 0.00 0.00 0.00 0.00 0.00 0.00 0.00 0.00 0.00 0.00 0.00 0.00 0.00 0.00 0.00 0.00 0.00 0.00 0.00 0.00 0.00 0.00 0.00 0.00 0.00
0.00 0.00 0.00 0.00 0.00 0.00 0.00 0.00 0.00 0.00 0.00 0.00 0.00 0.00 0.00 0.00 0.00 0.00 0.00 0.00 0.00 0.00 0.00 0.00 0.00 0.00 0.00 0.00 0.00 0.00 0.00 0.00 0.00 0.00 0.00 0.00 0.00 0.00 0.00 0.00 0.00 0.00 0.00 0.00
0.00 0.00 0.00 0.00 0.00 0.00 0.00 0.00 0.00 0.00 0.00 0.00 0.00 0.00 0.00 0.00 0.00 0.00 0.00 0.00 0.00 0.00 0.00 0.00 0.00 0.00 0.00 0.00 0.00 0.00 0.00 0.00 0.00 0.00 0.00 0.00 0.00 0.00 0.00 0.00 0.00 0.00 0.00 0.00
0.00 0.00 0.00 0.00 0.00 0.00 0.00 0.00 0.00 0.00 0.00 0.00 0.00 0.00 0.00 0.00 0.00 0.00 0.00 0.00 0.00 0.00 0.00 0.00 0.00 0.00 0.00 0.00 0.00 0.00 0.00 0.00 0.00 0.00 0.00 0.00 0.00 0.00 0.00 0.00 0.00 0.00 0.00 0.00
0.00 0.00 0.00 0.00 0.00 0.00 0.00 0.00 0.00 0.00 0.00 0.00 0.00 0.00 0.00 0.00 0.00 0.00 0.00 0.00 0.00 0.00 0.00 0.00 0.00 0.00 0.00 0.00 0.00 0.00 0.00 0.00 0.00 0.00 0.00 0.00 0.00 0.00 0.00 0.00 0.00 0.00 0.00 0.00
0.00 0.00 0.00 0.00 0.00 0.00 0.00 0.00 0.00 0.00 0.00 0.00 0.00 0.00 0.00 0.00 0.00 0.00 0.00 0.00 0.00 0.00 0.00 0.00 0.00 0.00 0.00 0.00 0.00 0.00 0.00 0.00 0.00 0.00 0.00 0.00 0.00 0.00 0.00 0.00 0.00 0.00 0.00 0.00
0.00 0.00 0.00 0.00 0.00 0.00 0.00 0.00 0.00 0.00 0.00 0.00 0.00 0.00 0.00 0.00 0.00 0.00 0.00 0.00 0.00 0.00 0.00 0.00 0.00 0.00 0.00 0.00 0.00 0.00 0.00 0.00 0.00 0.00 0.00 0.00 0.00 0.00 0.00 0.00 0.00 0.00 0.00 0.00
0.00 0.00 0.00 0.00 0.00 0.00 0.00 0.00 0.00 0.00 0.00 0.00 0.00 0.00 0.00 0.00 0.00 0.00 0.00 0.00 0.00 0.00 0.00 0.00 0.00 0.00 0.00 0.00 0.00 0.00 0.00 0.00 0.00 0.00 0.00 0.00 0.00 0.00 0.00 0.00 0.00 0.00 0.00 0.00
0.00 0.00 0.00 0.00 0.00 0.00 0.00 0.00 0.00 0.00 0.00 0.00 0.00 0.00 0.00 0.00 0.00 0.00 0.00 0.00 0.00 0.00 0.00 0.00 0.00 0.00 0.00 0.00 0.00 0.00 0.00 0.00 0.00 0.00 0.00 0.00 0.00 0.00 0.00 0.00 0.00 0.00 0.00 0.00
0.00 0.00 0.00 0.00 0.00 0.00 0.00 0.00 0.00 0.00 0.00 0.00 0.00 0.00 0.00 0.00 0.00 0.00 0.00 0.00 0.00 0.00 0.00 0.00 0.00 0.00 0.00 0.00 0.00 0.00 0.00 0.00 0.00 0.00 0.00 0.00 0.00 0.00 0.00 0.00 0.00 0.00 0.00 0.00
0.00 0.00 0.00 0.00 0.00 0.00 0.00 0.00 0.00 0.00 0.00 0.00 0.00 0.00 0.00 0.00 0.00 0.00 0.00 0.00 0.00 0.00 0.00 0.00 0.00 0.00 0.00 0.00 0.00 0.00 0.00 0.00 0.00 0.00 0.00 0.00 0.00 0.00 0.00 0.00 0.00 0.00 0.00 0.00
MSLP
1009.77 1009.19 1008.58 1008.22 1008.58 1008.35 1008.13 1008.37 1008.81 1010.20 1011.13 1010.77 1011.03 1011.77 1012.62 1013.33 1013.48 1013.89 1014.38 1014.95 1015.36 1016.00 1017.20 1017.97 1018.24 1018.38 1018.59 1019.40 1020.06 1020.58 1021.37 1022.28 1022.54 1023.02 1023.79 1023.83 1023.99 1024.18 1024.97 1024.60 1024.65 1024.91 1025.10 1025.06
1009.24 1008.49 1009.17 1009.25 1008.97 1008.66 1008.46 1008.72 1009.69 1010.79 1011.38 1011.01 1011.32 1011.88 1012.89 1013.42 1013.64 1013.90 1014.21 1014.66 1015.10 1016.07 1016.97 1017.88 1018.32 1018.51 1018.94 1019.41 1019.93 1020.40 1021.21 1021.56 1021.84 1022.10 1022.35 1022.50 1022.89 1023.43 1023.77 1024.58 1024.98 1025.09 1025.11 1025.08
1008.85 1009.47 1009.68 1009.15 1008.94 1008.86 1009.15 1009.07 1009.74 1009.99 1011.10 1011.18 1011.13 1011.49 1012.35 1013.61 1014.15 1014.59 1014.73 1014.61 1015.11 1015.82 1016.60 1017.43 1018.02 1018.45 1018.98 1019.38 1019.77 1020.11 1020.45 1020.98 1021.36 1021.60 1022.19 1022.78 1023.42 1023.89 1024.04 1024.36 1024.62 1024.96 1025.19 1025.25
1009.20 1009.68 1009.41 1009.14 1009.19 1009.24 1009.32 1010.05 1009.97 1010.06 1010.15 1009.74 1010.75 1009.62 1011.27 1012.57 1013.41 1014.04 1014.48 1014.85 1015.28 1016.10 1016.73 1017.28 1017.75 1018.25 1018.55 1018.96 1019.36 1019.67 1020.36 1020.94 1021.67 1022.11 1022.19 1022.43 1022.30 1022.60 1023.42 1024.07 1024.47 1024.81 1025.36 1025.38
1009.78 1009.63 1009.49 1009.36 1009.95 1010.00 1010.12 1010.51 1010.19 1010.08 1009.82 1010.07 1010.33 1010.22 1010.73 1012.06 1012.72 1013.47 1014.23 1014.87 1015.59 1016.13 1016.59 1017.08 1017.67 1018.18 1018.80 1019.40 1019.70 1020.04 1020.68 1021.18 1021.77 1022.11 1022.33 1022.66 1022.96 1023.47 1023.97 1024.33 1024.59 1024.75 1024.88 1025.07
1010.04 1010.34 1010.09 1010.25 1010.64 1010.41 1010.73 1010.67 1010.60 1010.49 1010.30 1009.88 1009.68 1010.21 1008.99 1010.53 1011.19 1012.72 1014.09 1015.07 1015.64 1016.29 1016.73 1017.29 1017.98 1018.66 1019.12 1019.67 1020.26 1020.62 1020.79 1021.46 1022.00 1022.41 1022.90 1023.18 1023.38 1023.55 1023.60 1023.97 1024.07 1024.10 1024.25 1024.33
1010.07 1010.38 1010.71 1010.84 1010.59 1011.18 1010.89 1010.38 1010.04 1010.36 1010.31 1009.97 1010.68 1010.35 1009.27 1010.23 1011.19 1011.98 1013.38 1014.59 1015.56 1016.33 1016.80 1017.36 1018.05 1018.58 1019.30 1020.10 1020.61 1020.99 1021.22 1021.81 1022.37 1022.73 1023.06 1023.43 1023.61 1023.70 1023.84 1024.13 1024.19 1024.47 1024.31 1024.30
1009.54 1010.45 1010.77 1010.96 1010.64 1010.24 1010.63 1010.51 1010.44 1010.58 1010.89 1010.65 1011.24 1009.93 1009.43 1010.92 1011.47 1011.95 1013.12 1014.17 1015.15 1016.01 1016.64 1017.18 1017.89 1018.58 1019.41 1020.08 1020.55 1020.91 1021.27 1021.81 1022.33 1022.76 1023.24 1023.49 1023.85 1023.90 1024.05 1024.31 1024.57 1024.60 1024.64 1024.66
1009.64 1010.30 1011.18 1011.34 1011.21 1011.24 1011.12 1011.03 1011.72 1011.78 1012.85 1012.04 1010.33 1010.07 1010.42 1011.32 1011.64 1012.07 1012.75 1013.85 1014.69 1015.44 1016.28 1017.03 1017.96 1018.67 1019.41 1020.11 1020.73 1021.08 1021.36 1021.83 1022.53 1023.14 1023.39 1023.58 1023.98 1024.24 1024.42 1024.68 1024.87 1024.82 1024.93 1024.86
1010.11 1010.47 1011.30 1011.64 1011.55 1011.61 1011.12 1011.69 1011.89 1011.98 1012.07 1011.35 1010.19 1010.05 1009.64 1010.94 1011.45 1012.02 1012.56 1013.45 1014.27 1015.05 1015.97 1016.95 1017.90 1018.85 1019.51 1020.22 1020.93 1021.39 1021.72 1022.24 1022.83 1023.25 1023.66 1023.84 1024.17 1024.45 1024.64 1024.82 1024.88 1024.87 1024.83 1024.76
1010.33 1010.36 1011.53 1011.70 1011.13 1010.76 1011.68 1011.59 1012.10 1012.14 1012.44 1011.75 1010.92 1009.65 1010.39 1010.68 1011.04 1011.70 1012.29 1013.12 1013.87 1014.67 1015.70 1016.85 1017.91 1018.92 1019.64 1020.32 1020.76 1021.32 1021.90 1022.40 1022.72 1023.21 1023.70 1024.00 1024.11 1024.36 1024.52 1024.68 1024.76 1024.77 1024.82 1024.67
1011.21 1010.96 1011.06 1011.20 1011.79 1011.88 1011.56 1011.35 1011.74 1011.90 1012.42 1012.67 1012.08 1010.43 1010.80 1011.04 1011.15 1011.55 1012.12 1012.89 1013.67 1014.68 1015.77 1016.89 1018.02 1018.83 1019.54 1020.11 1020.70 1021.38 1021.91 1022.29 1022.76 1023.20 1023.57 1023.81 1023.88 1024.09 1024.33 1024.51 1024.66 1024.76 1024.73 1024.63
1011.48 1011.38 1011.32 1011.75 1012.23 1012.13 1011.70 1011.73 1011.90 1012.37 1012.55 1012.10 1011.68 1010.20 1010.71 1010.97 1011.21 1011.48 1011.87 1012.59 1013.82 1015.04 1015.98 1016.96 1017.90 1018.58 1019.22 1019.90 1020.62 1021.28 1021.89 1022.23 1022.68 1023.00 1023.17 1023.31 1023.56 1023.92 1024.13 1024.35 1024.53 1024.61 1024.61 1024.46
1012.05 1011.61 1011.14 1011.08 1011.00 1011.21 1011.50 1011.61 1011.81 1011.78 1011.92 1011.21 1010.66 1009.67 1009.97 1010.40 1010.67 1011.13 1011.75 1012.56 1013.86 1015.00 1015.87 1016.66 1017.52 1018.19 1018.96 1019.69 1020.37 1021.13 1021.73 1022.14 1022.49 1022.62 1022.81 1022.98 1023.46 1023.75 1024.02 1024.28 1024.40 1024.46 1024.51 1024.34
1012.39 1011.91 1012.20 1012.34 1012.43 1012.26 1011.81 1011.55 1011.63 1011.38 1011.06 1010.88 1009.68 1009.59 1009.15 1009.71 1010.21 1010.71 1011.56 1012.52 1013.57 1014.68 1015.58 1016.31 1017.01 1017.82 1018.62 1019.38 1020.12 1020.78 1021.47 1022.05 1022.30 1022.39 1022.65 1022.93 1023.29 1023.63 1023.88 1024.12 1024.25 1024.34 1024.26 1023.99
1012.93 1012.88 1013.19 1013.21 1013.36 1013.07 1012.37 1011.80 1011.43 1011.18 1010.82 1010.46 1009.79 1009.21 1009.24 1009.81 1010.63 1011.05 1011.81 1012.62 1013.39 1014.25 1015.17 1015.97 1016.72 1017.47 1018.24 1018.99 1019.74 1020.76 1021.24 1021.76 1022.14 1022.30 1022.56 1022.82 1023.15 1023.43 1023.66 1023.91 1024.04 1023.97 1023.87 1023.51
1013.18 1013.49 1013.86 1013.98 1014.20 1013.69 1012.89 1011.37 1010.92 1010.57 1010.33 1010.06 1009.48 1008.98 1009.42 1010.28 1010.79 1011.12 1011.70 1012.51 1013.11 1013.82 1014.76 1015.62 1016.43 1017.24 1018.03 1018.86 1019.99 1020.35 1020.96 1021.59 1022.03 1022.18 1022.46 1022.80 1023.11 1023.30 1023.42 1023.55 1023.50 1023.35 1023.25 1023.23
1013.76 1014.14 1014.81 1015.07 1015.14 1013.64 1011.31 1011.35 1011.05 1010.49 1010.06 1009.70 1009.62 1009.56 1010.31 1010.54 1011.10 1011.60 1011.83 1012.15 1012.87 1013.65 1014.61 1015.49 1016.36 1017.32 1018.15 1019.17 1019.90 1020.42 1021.01 1021.50 1021.84 1022.13 1022.43 1022.77 1022.98 1023.03 1023.09 1023.12 1023.08 1022.88 1022.63 1022.74
1014.30 1014.71 1015.46 1015.69 1014.64 1012.83 1011.21 1011.51 1011.52 1011.10 1009.97 1009.68 1009.62 1009.78 1010.70 1011.64 1011.84 1011.40 1012.00 1012.44 1012.88 1013.72 1014.69 1015.54 1016.44 1017.58 1018.61 1019.36 1020.19 1020.70 1021.09 1021.46 1021.88 1022.16 1022.32 1022.47 1022.62 1022.67 1022.65 1022.58 1022.66 1022.70 1022.29 1022.47
1015.12 1015.19 1015.11 1015.79 1014.82 1012.96 1011.71 1011.98 1012.00 1011.66 1010.54 1010.47 1010.47 1010.50 1011.11 1011.75 1011.36 1010.84 1011.86 1012.74 1013.41 1014.11 1014.94 1016.00 1017.24 1018.23 1018.85 1019.54 1020.38 1020.91 1021.09 1021.45 1021.78 1022.13 1022.28 1022.44 1022.63 1022.66 1022.43 1022.39 1022.31 1022.08 1022.00 1022.04
1015.37 1015.50 1015.44 1015.26 1014.42 1012.79 1011.90 1012.12 1012.30 1011.75 1011.45 1011.03 1011.16 1011.01 1011.43 1011.61 1011.37 1012.01 1012.39 1013.07 1013.78 1014.61 1015.66 1016.69 1017.51 1018.25 1019.05 1019.83 1020.66 1020.84 1020.96 1021.32 1021.67 1022.18 1022.56 1022.54 1022.41 1022.29 1022.20 1022.11 1022.25 1021.84 1021.64 1021.82
1013.98 1014.63 1014.96 1014.86 1013.99 1012.72 1012.20 1012.40 1012.17 1011.78 1011.49 1011.68 1011.58 1011.68 1011.95 1012.02 1012.71 1013.14 1013.30 1013.60 1014.38 1015.27 1016.51 1017.57 1017.96 1018.73 1020.22 1020.58 1020.62 1020.79 1021.02 1021.46 1022.11 1022.12 1022.16 1022.04 1021.94 1022.09 1021.97 1021.72 1021.70 1021.57 1021.27 1021.46
1013.70 1013.39 1013.39 1013.44 1012.38 1012.05 1012.19 1011.80 1011.95 1012.18 1012.08 1012.02 1012.12 1012.01 1012.49 1012.63 1012.95 1013.57 1014.03 1014.73 1015.64 1016.60 1017.48 1018.05 1018.89 1019.90 1020.08 1020.68 1021.01 1021.19 1021.24 1021.73 1022.00 1021.94 1021.80 1021.68 1021.77 1021.78 1021.65 1021.26 1021.18 1021.30 1020.88 1021.01
1013.39 1013.71 1013.50 1013.31 1011.83 1011.89 1011.98 1012.08 1012.15 1012.31 1012.23 1012.10 1012.14 1012.25 1012.43 1012.58 1013.00 1013.92 1014.75 1015.56 1016.47 1017.45 1018.47 1019.18 1019.99 1020.09 1020.67 1020.90 1021.24 1021.48 1021.67 1021.93 1021.97 1021.80 1021.63 1021.46 1021.32 1021.27 1021.15 1020.84 1021.26 1021.04 1020.73 1020.75
1013.46 1013.70 1013.22 1012.99 1012.21 1012.06 1011.95 1012.37 1012.56 1012.56 1012.59 1012.56 1012.52 1012.77 1012.99 1013.24 1013.65 1014.68 1015.76 1016.85 1018.07 1018.74 1019.70 1020.08 1019.96 1020.44 1020.92 1021.32 1021.45 1021.52 1021.81 1021.85 1021.79 1021.68 1021.46 1021.25 1021.07 1020.89 1020.51 1020.57 1020.78 1020.46 1020.51 1020.57
1014.05 1013.83 1013.74 1013.05 1013.10 1012.93 1012.66 1013.01 1013.37 1013.40 1013.34 1013.50 1013.59 1013.84 1014.32 1014.31 1015.22 1016.50 1017.95 1019.02 1019.40 1020.07 1020.36 1020.59 1020.91 1021.10 1021.25 1021.45 1021.50 1021.60 1021.81 1021.89 1021.79 1021.65 1021.41 1021.03 1021.00 1020.55 1020.49 1020.46 1020.24 1020.24 1020.48 1020.63
Thickness
5661 5660 5661 5673 5674 5677 5680 5676 5672 5664 5660 5669 5668 5664 5661 5663 5667 5663 5662 5659 5659 5658 5652 5647 5647 5647 5644 5636 5629 5624 5615 5607 5604 5597 5587 5582 5576 5572 5563 5561 5556 5549 5543 5539
5659 5662 5662 5666 5672 5676 5679 5672 5661 5657 5659 5668 5665 5660 5659 5661 5664 5666 5664 5662 5661 5655 5650 5644 5642 5641 5636 5631 5625 5621 5612 5607 5603 5598 5590 5586 5578 5569 5562 5549 5539 5532 5528 5525
5655 5657 5662 5668 5670 5669 5667 5669 5662 5666 5659 5666 5667 5660 5659 5654 5655 5655 5658 5665 5662 5656 5650 5644 5640 5635 5630 5625 5621 5617 5613 5607 5600 5593 5582 5573 5563 5555 5550 5542 5534 5527 5521 5515
5658 5661 5663 5668 5664 5670 5660 5665 5668 5665 5667 5664 5669 5672 5665 5660 5656 5655 5655 5656 5655 5649 5645 5641 5636 5631 5628 5624 5620 5616 5608 5600 5590 5582 5577 5571 5569 5561 5548 5537 5527 5519 5511 5506
5648 5656 5661 5663 5656 5663 5658 5662 5667 5668 5669 5665 5662 5662 5665 5658 5652 5652 5652 5650 5647 5645 5641 5636 5631 5626 5620 5615 5611 5606 5599 5591 5583 5575 5570 5563 5555 5545 5535 5526 5518 5511 5505 5498
5650 5661 5662 5659 5656 5662 5660 5659 5660 5663 5661 5646 5666 5657 5681 5664 5665 5654 5648 5642 5641 5637 5634 5629 5623 5617 5612 5607 5600 5594 5590 5581 5574 5567 5558 5551 5542 5535 5530 5522 5515 5509 5500 5492
5648 5648 5655 5657 5652 5652 5656 5657 5644 5634 5637 5639 5647 5648 5669 5669 5662 5659 5647 5640 5635 5630 5626 5622 5616 5612 5605 5596 5589 5584 5579 5571 5563 5557 5549 5541 5534 5528 5520 5512 5505 5495 5488 5481
5641 5630 5647 5652 5654 5656 5654 5657 5641 5620 5627 5639 5639 5643 5665 5659 5659 5660 5651 5643 5635 5628 5625 5620 5614 5607 5598 5591 5585 5579 5573 5564 5556 5549 5540 5533 5524 5517 5509 5500 5491 5484 5476 5468
5640 5634 5645 5645 5651 5652 5644 5643 5647 5630 5606 5619 5653 5657 5661 5651 5650 5652 5650 5642 5635 5630 5624 5617 5610 5602 5594 5586 5577 5571 5565 5557 5546 5537 5530 5522 5513 5504 5496 5487 5477 5470 5461 5453
5646 5629 5639 5640 5647 5647 5650 5648 5633 5634 5612 5619 5649 5646 5658 5647 5646 5647 5645 5638 5634 5630 5623 5613 5605 5594 5588 5579 5569 5562 5555 5545 5536 5527 5517 5509 5500 5490 5482 5473 5465 5457 5449 5441
5650 5646 5630 5637 5641 5645 5636 5636 5633 5637 5627 5625 5626 5653 5660 5653 5653 5646 5644 5639 5635 5628 5620 5608 5598 5588 5580 5571 5563 5554 5544 5535 5527 5516 5506 5496 5489 5480 5472 5463 5454 5445 5436 5428
5639 5639 5626 5634 5636 5639 5642 5642 5640 5628 5622 5616 5618 5643 5652 5650 5651 5650 5644 5639 5634 5624 5614 5602 5590 5581 5571 5563 5555 5544 5534 5525 5515 5505 5496 5487 5480 5471 5461 5451 5441 5431 5423 5415
5636 5631 5619 5620 5626 5632 5634 5637 5637 5629 5625 5620 5612 5642 5649 5647 5645 5645 5642 5638 5626 5613 5604 5593 5583 5574 5565 5555 5545 5534 5523 5515 5505 5495 5487 5479 5470 5460 5450 5440 5430 5420 5412 5402
5627 5630 5634 5629 5636 5641 5628 5631 5634 5635 5619 5630 5633 5648 5646 5644 5643 5642 5637 5631 5617 5605 5595 5586 5576 5568 5557 5546 5536 5525 5514 5505 5495 5487 5478 5470 5459 5449 5439 5428 5418 5408 5396 5386
5625 5625 5624 5621 5621 5624 5631 5632 5631 5631 5637 5623 5645 5639 5652 5645 5644 5641 5634 5624 5612 5599 5589 5580 5571 5560 5549 5538 5528 5517 5504 5493 5484 5477 5469 5459 5449 5438 5427 5416 5405 5393 5382 5373
5617 5616 5610 5610 5610 5613 5617 5628 5633 5634 5636 5632 5638 5639 5651 5644 5634 5628 5619 5611 5602 5593 5583 5573 5563 5553 5541 5531 5519 5503 5495 5484 5475 5467 5458 5448 5437 5426 5415 5403 5391 5381 5370 5361
5612 5608 5605 5608 5598 5602 5597 5626 5633 5634 5636 5632 5624 5641 5641 5626 5619 5618 5613 5603 5596 5588 5576 5565 5554 5543 5532 5520 5504 5497 5486 5474 5463 5455 5445 5435 5423 5412 5403 5391 5381 5371 5361 5347
5601 5603 5590 5594 5577 5587 5637 5631 5630 5631 5635 5637 5631 5632 5623 5620 5613 5607 5604 5599 5588 5578 5566 5555 5545 5531 5520 5506 5494 5484 5473 5462 5452 5442 5431 5421 5410 5401 5391 5381 5370 5361 5350 5334
5602 5597 5577 5583 5596 5615 5633 5621 5617 5613 5625 5631 5625 5624 5612 5599 5594 5599 5591 5585 5578 5568 5556 5546 5533 5518 5505 5492 5480 5469 5459 5450 5439 5428 5419 5410 5400 5390 5380 5370 5358 5345 5336 5320
5588 5590 5595 5572 5585 5587 5618 5610 5609 5609 5604 5614 5611 5607 5597 5587 5584 5593 5583 5571 5562 5555 5545 5531 5514 5500 5491 5479 5466 5455 5447 5436 5426 5416 5406 5396 5385 5375 5367 5357 5344 5334 5322 5310
5576 5570 5577 5574 5577 5596 5609 5602 5598 5588 5592 5600 5594 5594 5585 5579 5584 5575 5569 5559 5551 5540 5526 5512 5500 5489 5476 5463 5450 5443 5436 5425 5415 5402 5390 5380 5372 5363 5353 5343 5328 5320 5311 5295
5589 5579 5571 5563 5565 5573 5595 5587 5583 5591 5592 5585 5583 5579 5572 5571 5560 5553 5550 5544 5535 5523 5506 5493 5484 5472 5452 5444 5439 5433 5423 5411 5397 5388 5379 5369 5360 5349 5340 5330 5316 5306 5297 5284
5586 5592 5591 5587 5593 5591 5585 5587 5585 5578 5574 5573 5568 5568 5559 5554 5549 5540 5533 5524 5513 5500 5487 5477 5464 5449 5444 5434 5424 5415 5406 5393 5382 5374 5365 5356 5346 5335 5325 5317 5305 5292 5288 5276
5584 5577 5577 5574 5592 5582 5578 5576 5573 5569 5566 5566 5563 5558 5553 5548 5542 5529 5518 5507 5495 5482 5464 5454 5443 5438 5427 5418 5409 5399 5388 5377 5367 5359 5351 5342 5335 5322 5313 5304 5289 5284 5277 5266
5579 5569 5571 5568 5576 5574 5573 5565 5561 5560 5557 5553 5550 5544 5539 5535 5529 5516 5501 5485 5468 5456 5443 5435 5432 5422 5410 5399 5390 5382 5372 5363 5355 5345 5338 5330 5320 5311 5304 5293 5283 5277 5267 5256
5562 5565 5558 5560 5558 5555 5558 5554 5548 5544 5542 5538 5533 5528 5519 5517 5506 5489 5470 5453 5444 5433 5426 5419 5409 5400 5392 5383 5375 5366 5355 5346 5339 5331 5323 5315 5305 5299 5292 5284 5277 5266 5253 5245